User: anonymous   Login
Location: Obersdorf
(47.4079°N, 10.2781°E)
Time: 05:09:36
(UTC+02:00)
Language:

XW-2C - Orbit

View from above orbital plane
View from above orbital plane
View from above satellite
View from above satellite

Ground track
Ground track

The orbit data is extracted from the following two-line orbital elements,

1 40906U 15049H   22274.94213517  .00006725  00000-0  31424-3 0  9994
2 40906  97.4966 277.5891 0013445 356.3786  62.5630 15.20048434389098
Epoch (UTC): 01 October 2022 22:36:40
Eccentricity: 0.0013445
inclination: 97.4966°
perigee height: 496 km
apogee height: 515 km
right ascension of ascending node: 277.5891°
argument of perigee: 356.3786°
revolutions per day: 15.20048434
mean anomaly at epoch: 62.5630°
orbit number at epoch: 38909

The dashed part of the orbit path shows where the satellite is in the earth's shadow,  

DLR